Location: Zagreb
(45.8000°N, 16.0000°E)
Time: 01:43:39
(UTC+01:00)

SR - Pass Details

Date: 14 August 2020
Orbit: 576 x 879 km, 66.7° (Epoch: 15 January)

Event Time Altitude Azimuth Distance (km) Brightness Sun altitude
Rises 22:29:16 0° 238° (WSW) 2,922 ? -21.1°
Reaches altitude 10° 22:31:48 10° 249° (WSW) 1,977 ? -21.4°
Maximum altitude 22:35:44 31° 312° (NW) 1,057 ? -21.9°
Drops below altitude 10° 22:39:32 10° 16° (NNE) 1,905 ? -22.3°
Sets 22:41:57 0° 27° (NNE) 2,799 ? -22.5°
